Weather History for Butte, MT

Change the Weather History Date:

Thursday, May 23, 2013

  Actual Average Record
Temperature  
Mean Temperature 34 °F 50 °F  
Max Temperature 39 °F 63 °F 84 °F (1929)
Min Temperature 30 °F 36 °F 19 °F (1986)
Degree Days  
Heating Degree Days 32 15  
Month to date heating degree days 427  
Since 1 July heating degree days 8818  
Cooling Degree Days 0 0  
Month to date cooling degree days 0  
Year to date cooling degree days 0  
Moisture  
Dew Point 32 °F    
Average Humidity 93    
Maximum Humidity 100    
Minimum Humidity 79    
Precipitation  
Precipitation 0.84 in 0.08 in 0.73 in (2013)
Month to date precipitation 1.39  
Year to date precipitation 4.22  
Sea Level Pressure  
Sea Level Pressure 29.94 in    
Wind  
Wind Speed 5 mph (NW)    
Max Wind Speed 14 mph    
Max Gust Speed 26 mph    
Visibility 4 miles    
Events Fog , Rain , Snow    
T = Trace of Precipitation, MM = Missing Value Source: NWS Daily Summary

Daily Weather History Graph

Daily Weather History Graph

Search for Another Location

Airport:

Trip Planner

Search our weather history database for the weather conditions in past years. The results will help you decide how hot, cold, wet, or windy it might be!

Date:

Astronomy

May. 23, 2013 Rise Set
Actual Time 5:49 AM MDT 9:04 PM MDT
Civil Twilight 5:13 AM MDT 9:41 PM MDT
Nautical Twilight 4:26 AM MDT 10:28 PM MDT
Astronomical Twilight 3:27 AM MDT 11:27 PM MDT
Moon 7:38 PM MDT (5/23) 4:42 AM MDT (5/23)
Length of Visible Light 16h 28m
Length of Day
15h 15m
Waxing Gibbous, 97% of the Moon is Illuminated
May 23
Waxing Gibbous
May 24
Full
May 31
Last Quarter
Jun 8
New
Jun 16
First Quarter

Hourly Weather History & Observations

Time (MDT) Temp. Windchill Dew Point Humidity Pressure Visibility Wind Dir Wind Speed Gust Speed Precip Events Conditions
12:16 AM 37.4 °F 34.9 °F 35.6 °F 93% 29.94 in 6.0 mi WSW 3.5 mph - 0.02 in Rain Light Rain
12:27 AM 35.6 °F 30.7 °F 33.8 °F 93% 29.94 in 5.0 mi SW 5.8 mph - 0.04 in Rain Rain
12:34 AM 35.6 °F 30.7 °F 33.8 °F 93% 29.92 in 3.0 mi NW 5.8 mph - 0.06 in Rain Heavy Rain
12:42 AM 35.6 °F 29.9 °F 33.8 °F 93% 29.89 in 3.0 mi North 6.9 mph - 0.08 in Snow Light Snow
12:50 AM 33.8 °F 27.0 °F 32.0 °F 93% 29.88 in 2.5 mi NNW 8.1 mph - 0.10 in Snow Light Snow
12:53 AM 34.0 °F 28.0 °F 32.0 °F 92% 29.84 in 2.5 mi NNW 6.9 mph - 0.11 in Snow Light Snow
1:02 AM 33.8 °F 27.0 °F 33.8 °F 100% 29.92 in 4.0 mi SW 8.1 mph - 0.00 in Snow Light Snow
1:19 AM 33.8 °F 30.8 °F 32.0 °F 93% 29.90 in 3.0 mi West 3.5 mph - 0.02 in Snow Light Snow
1:22 AM 33.8 °F 29.6 °F 32.0 °F 93% 29.91 in 1.8 mi WSW 4.6 mph - 0.03 in Snow Light Snow
1:29 AM 33.8 °F 27.0 °F 32.0 °F 93% 29.94 in 1.5 mi SSW 8.1 mph - 0.04 in Snow Light Snow
1:53 AM 33.1 °F 30.0 °F 32.0 °F 96% 29.88 in 1.0 mi NE 3.5 mph - 0.08 in Snow Light Snow
2:06 AM 33.8 °F 30.8 °F 32.0 °F 93% 29.93 in 0.8 mi NNE 3.5 mph - 0.03 in Snow Light Snow
2:24 AM 32.0 °F 26.4 °F 30.2 °F 93% 29.92 in 1.0 mi NNW 5.8 mph - 0.05 in Snow Light Snow
2:31 AM 32.0 °F 28.7 °F 32.0 °F 100% 29.93 in 0.8 mi NW 3.5 mph - 0.06 in Snow Light Snow
2:35 AM 32.0 °F 28.7 °F 32.0 °F 100% 29.93 in 1.0 mi NW 3.5 mph - 0.06 in Snow Light Snow
2:48 AM 32.0 °F - 32.0 °F 100% 29.92 in 0.8 mi Calm Calm - 0.08 in Snow Light Snow
2:53 AM 32.0 °F 28.7 °F 32.0 °F 100% 29.88 in 1.0 mi NW 3.5 mph - 0.09 in Snow Light Snow
3:25 AM 32.0 °F 27.5 °F 32.0 °F 100% 29.90 in 1.8 mi NW 4.6 mph - 0.01 in Snow Light Snow
3:41 AM 32.0 °F - 32.0 °F 100% 29.91 in 1.0 mi Calm Calm - 0.03 in Snow Light Snow
3:53 AM 32.0 °F 27.5 °F 32.0 °F 100% 29.88 in 1.2 mi SSE 4.6 mph - 0.04 in Snow Light Snow
4:05 AM 32.0 °F 28.7 °F 32.0 °F 100% 29.91 in 1.0 mi East 3.5 mph - 0.02 in Snow Light Snow
4:46 AM 32.0 °F 27.5 °F 30.2 °F 93% 29.93 in 0.8 mi North 4.6 mph - 0.07 in Snow Light Snow
4:53 AM 32.0 °F 26.4 °F 30.9 °F 96% 29.91 in 0.8 mi NNW 5.8 mph - 0.08 in Snow Light Snow
5:28 AM 30.2 °F 26.7 °F 30.2 °F 100% 29.92 in 1.0 mi NNW 3.5 mph - 0.04 in Snow Light Snow
5:53 AM 30.9 °F 26.2 °F 30.9 °F 100% 29.91 in 1.5 mi NW 4.6 mph - 0.05 in Snow Light Snow
6:03 AM 30.2 °F - 30.2 °F 100% 29.93 in 1.8 mi Calm Calm - 0.01 in Snow Light Snow
6:19 AM 32.0 °F - 30.2 °F 93% 29.93 in 0.5 mi Calm Calm - 0.02 in Fog , Snow Light Snow
6:33 AM 30.2 °F 25.4 °F 30.2 °F 100% 29.93 in 1.0 mi WNW 4.6 mph - 0.02 in Snow Light Snow
6:53 AM 30.9 °F 27.5 °F 30.0 °F 96% 29.92 in 0.8 mi WNW 3.5 mph - 0.03 in Snow Light Snow
7:18 AM 30.2 °F 24.3 °F 30.2 °F 100% 29.93 in 1.5 mi NW 5.8 mph - 0.01 in Snow Light Snow
7:27 AM 30.2 °F 26.7 °F 28.4 °F 93% 29.94 in 2.0 mi WNW 3.5 mph - 0.01 in Snow Light Snow
7:35 AM 30.2 °F - 30.2 °F 100% 29.94 in 1.0 mi Calm Calm - 0.01 in Snow Light Snow
7:44 AM 30.2 °F - 30.2 °F 100% 29.94 in 1.0 mi Calm Calm - 0.01 in Snow Light Snow
7:53 AM 30.9 °F - 30.0 °F 96% 29.93 in 1.8 mi Calm Calm - 0.01 in Snow Light Snow
8:21 AM 32.0 °F - 30.2 °F 93% 29.94 in 1.2 mi Calm Calm - 0.01 in Snow Light Snow
8:53 AM 32.0 °F - 30.0 °F 92% 29.94 in 1.2 mi Calm Calm - 0.02 in Snow Light Snow
9:08 AM 32.0 °F - 30.2 °F 93% 29.95 in 3.0 mi Calm Calm - 0.00 in Snow Light Snow
9:34 AM 32.0 °F 25.6 °F 28.4 °F 87% 29.94 in 1.8 mi NW 6.9 mph - 0.00 in Snow Light Snow
9:53 AM 32.0 °F 26.4 °F 30.0 °F 92% 29.96 in 1.0 mi WNW 5.8 mph - 0.01 in Snow Light Snow
10:21 AM 32.0 °F 25.6 °F 30.2 °F 93% 29.95 in 1.0 mi WNW 6.9 mph - 0.01 in Snow Light Snow
10:27 AM 32.0 °F 25.6 °F 30.2 °F 93% 29.95 in 2.0 mi West 6.9 mph - 0.01 in Snow Light Snow
10:29 AM 32.0 °F 24.2 °F 30.2 °F 93% 29.95 in 3.0 mi WNW 9.2 mph - 0.01 in Snow Light Snow
10:32 AM 32.0 °F 24.8 °F 30.2 °F 93% 29.95 in 4.0 mi WNW 8.1 mph - 0.01 in Snow Light Snow
10:53 AM 33.1 °F 27.7 °F 30.9 °F 92% 29.98 in 10.0 mi NW 5.8 mph - 0.01 in   Overcast
11:03 AM 33.8 °F 29.6 °F 30.2 °F 87% 29.95 in 10.0 mi NW 4.6 mph - N/A   Overcast
11:17 AM 33.8 °F 28.6 °F 30.2 °F 87% 29.95 in 10.0 mi NW 5.8 mph - N/A   Overcast
11:42 AM 33.8 °F 28.6 °F 30.2 °F 87% 29.95 in 10.0 mi WNW 5.8 mph - N/A   Overcast
11:53 AM 34.0 °F 28.8 °F 30.0 °F 85% 29.99 in 10.0 mi NW 5.8 mph - N/A   Overcast
12:30 PM 35.6 °F 29.9 °F 30.2 °F 81% 29.94 in 10.0 mi WNW 6.9 mph - N/A   Overcast
12:53 PM 35.1 °F 29.3 °F 30.0 °F 82% 30.00 in 10.0 mi WNW 6.9 mph - N/A   Overcast
1:01 PM 35.6 °F 29.2 °F 30.2 °F 81% 29.95 in 10.0 mi WNW 8.1 mph - N/A   Overcast
1:08 PM 35.6 °F 30.7 °F 30.2 °F 81% 29.95 in 10.0 mi NW 5.8 mph - N/A   Overcast
1:37 PM 37.4 °F 32.1 °F 32.0 °F 81% 29.95 in 10.0 mi NW 6.9 mph - N/A   Overcast
1:53 PM 36.0 °F 30.3 °F 30.0 °F 79% 29.99 in 10.0 mi NW 6.9 mph - N/A   Overcast
2:53 PM 36.0 °F 31.1 °F 30.9 °F 82% 30.00 in 10.0 mi WNW 5.8 mph - N/A   Overcast
3:53 PM 37.0 °F 34.5 °F 32.0 °F 82% 29.99 in 10.0 mi WNW 3.5 mph - N/A   Overcast
4:53 PM 37.9 °F - 33.1 °F 83% 29.98 in 10.0 mi Calm Calm - N/A   Overcast
5:53 PM 36.0 °F 30.3 °F 33.1 °F 89% 29.98 in 2.5 mi NW 6.9 mph - 0.04 in Snow Light Snow
6:03 PM 35.6 °F - 33.8 °F 93% 29.93 in 4.0 mi Calm Calm - 0.01 in Snow Light Snow
6:18 PM 33.8 °F 28.6 °F 33.8 °F 100% 29.94 in 2.0 mi ESE 5.8 mph - 0.03 in Snow Light Snow
6:26 PM 33.8 °F 28.6 °F 33.8 °F 100% 29.93 in 3.0 mi East 5.8 mph - 0.03 in Snow Light Snow
6:29 PM 33.8 °F 28.6 °F 33.8 °F 100% 29.94 in 2.5 mi East 5.8 mph - 0.03 in Snow Light Snow
6:34 PM 33.8 °F 29.6 °F 33.8 °F 100% 29.92 in 1.5 mi East 4.6 mph - 0.04 in Snow Light Snow
6:51 PM 33.8 °F 30.8 °F 32.0 °F 93% 29.91 in 0.8 mi North 3.5 mph - 0.08 in Snow Light Snow
6:53 PM 33.1 °F 28.7 °F 32.0 °F 96% 29.98 in 0.8 mi NNW 4.6 mph - 0.08 in Snow Light Snow
7:16 PM 33.8 °F 26.4 °F 32.0 °F 93% 29.91 in 1.8 mi NW 9.2 mph - 0.03 in Snow Light Snow
7:19 PM 33.8 °F 27.0 °F 32.0 °F 93% 29.92 in 3.0 mi WNW 8.1 mph - 0.03 in Snow Light Snow
7:36 PM 33.8 °F 24.3 °F 32.0 °F 93% 29.95 in 2.5 mi West 13.8 mph 26.5 mph 0.04 in Snow Light Snow
7:40 PM 33.8 °F 25.3 °F 32.0 °F 93% 29.95 in 1.8 mi WNW 11.5 mph - 0.05 in Snow Light Snow
7:53 PM 34.0 °F 28.0 °F 32.0 °F 92% 30.01 in 1.0 mi North 6.9 mph - 0.06 in Snow Light Snow
8:01 PM 33.8 °F 27.7 °F 32.0 °F 93% 29.95 in 0.8 mi NNE 6.9 mph - 0.01 in Snow Light Snow
8:07 PM 33.8 °F 28.6 °F 32.0 °F 93% 29.95 in 0.5 mi NNW 5.8 mph - 0.02 in Fog , Snow Snow
8:22 PM 33.8 °F 27.7 °F 32.0 °F 93% 29.95 in 0.8 mi NW 6.9 mph - 0.03 in Snow Light Snow
8:32 PM 33.8 °F 26.4 °F 32.0 °F 93% 29.96 in 1.2 mi WNW 9.2 mph - 0.03 in Snow Light Snow
8:45 PM 33.8 °F 27.0 °F 32.0 °F 93% 29.97 in 2.0 mi West 8.1 mph - 0.04 in Snow Light Snow
8:53 PM 33.1 °F 26.9 °F 32.0 °F 96% 30.03 in 5.0 mi WNW 6.9 mph - 0.04 in Snow Light Snow
9:11 PM 33.8 °F 27.7 °F 32.0 °F 93% 29.97 in 2.5 mi West 6.9 mph - 0.02 in Snow Light Snow
9:20 PM 33.8 °F 27.0 °F 32.0 °F 93% 29.97 in 3.0 mi WNW 8.1 mph - 0.02 in Snow Light Snow
9:29 PM 33.8 °F 29.6 °F 32.0 °F 93% 29.98 in 1.8 mi NW 4.6 mph - 0.03 in Snow Light Snow
9:40 PM 33.8 °F 30.8 °F 32.0 °F 93% 29.99 in 1.5 mi WNW 3.5 mph - 0.05 in Snow Light Snow
9:48 PM 33.8 °F 30.8 °F 32.0 °F 93% 29.99 in 1.5 mi North 3.5 mph - 0.06 in Snow Light Snow
9:53 PM 33.1 °F - 32.0 °F 96% 30.05 in 1.2 mi Calm Calm - 0.07 in Snow Light Snow
10:01 PM 33.8 °F 29.6 °F 30.2 °F 87% 29.98 in 1.0 mi NNE 4.6 mph - 0.01 in Snow Light Snow
10:27 PM 32.0 °F 26.4 °F 32.0 °F 100% 29.95 in 2.5 mi NW 5.8 mph - 0.02 in Snow Light Snow
10:34 PM 32.0 °F 27.5 °F 32.0 °F 100% 29.96 in 5.0 mi West 4.6 mph - 0.02 in Snow Light Snow
10:53 PM 33.1 °F 30.0 °F 32.0 °F 96% 30.03 in 10.0 mi East 3.5 mph - 0.02 in   Overcast
11:06 PM 33.8 °F 29.6 °F 32.0 °F 93% 29.95 in 10.0 mi East 4.6 mph - N/A   Overcast
11:19 PM 33.8 °F - 32.0 °F 93% 29.93 in 10.0 mi Calm Calm - N/A   Overcast
11:53 PM 33.1 °F 27.7 °F 32.0 °F 96% 30.00 in 9.0 mi SSE 5.8 mph - N/A   Overcast